Regional Weather Roundup
Issued by NWS Jackson, KY

Home | Current Version | Previous Version | Text Only | Print | Product List | Glossary On
Versions: 1 2 3 4 5 6 7 8 9 10 11 12 13 14 15 16 17 18 19 20 21 22 23 24 25 26 27 28 29 30 31 32 33 34 35 36 37 38 39 40 41 42 43 44 45 46 47 48 49 50
879
ASUS43 KJKL 290210
RWRJKL

EAST KENTUCKY HOURLY WEATHER ROUNDUP
NATIONAL WEATHER SERVICE JACKSON KY
1000 PM EDT THU JUL 28 2016

NOTE: "FAIR" INDICATES FEW OR NO CLOUDS BELOW 12,000 FEET WITH
NO SIGNIFICANT WEATHER AND/OR OBSTRUCTIONS TO VISIBILITY.

* THESE REPORTS ARE NOT UNDER NWS QUALITY CONTROL AND MAY NOT
  REPORT WEATHER SUCH AS PRECIPITATION AND FOG.

KYZ079-080-083-085-087-088-110-112-115-119-120-290300
...EASTERN KENTUCKY...

CITY           SKY/WX    TMP DP  RH WIND       PRES   REMARKS
JACKSON        PTCLDY    70  68  93 CALM      29.97R
LONDON         CLEAR     71  68  90 CALM      29.98R
SOMERSET*      PTCLDY    70  70 100 CALM      29.98R
MONTICELLO*    PTCLDY   N/A N/A N/A CALM      29.99R
WILLIAMSBURG*  PTCLDY    70  70 100 CALM      29.98R
MIDDLESBORO*   CLOUDY    72  71  98 CALM      29.99R
HARLAN APT*      N/A     70  68  94 CALM      29.99R
PIKE CO APT*   FOG       69  69 100 CALM      29.97S VSB 1/2
BIG SANDY APT* CLOUDY    71  71 100 CALM      29.97R
MOREHEAD APT*  CLOUDY    73  72  94 SW3       29.96R
ASHLAND*       CLOUDY    72  72 100 CALM      29.91R
$$

KYZ035-036-041-042-044-050-067-078-099-290300
...CENTRAL KENTUCKY...

CITY           SKY/WX    TMP DP  RH WIND       PRES   REMARKS
MT STERLING*   PTCLDY    72  72 100 CALM      29.96R
FLEMING/MASON* CLEAR     73  71  96 S5        29.94S
DANVILLE*      MOCLDY    72  70  94 SW3       29.97R
LEXINGTON      LGT RAIN  74  71  91 S8        29.94R
FRANKFORT      LGT RAIN  76  72  87 VRB5      29.92R
LOUISVILLE     MOCLDY    79  65  62 E5        29.90R
LEBANON*         N/A     75  72  88 SE8       29.94S
GLASGOW*       CLEAR     75  73  93 CALM      29.95R
BOWLING GREEN  PTCLDY    78  73  84 E3        29.94R
$$

KYZ091>093-OHZ055-061-077-WVZ005-015-034-035-042-290300
...SOUTHERN OHIO/WEST VIRGINIA...

CITY           SKY/WX    TMP DP  RH WIND       PRES   REMARKS
COVINGTON      CLOUDY    75  73  93 S5        29.90F
COLUMBUS       CLOUDY    73  73 100 CALM      29.89S
DAYTON         PTCLDY    76  69  79 SW8       29.91S
WILMINGTON     PTCLDY    72  71  97 S5        29.92R
HUNTINGTON     CLOUDY    73  71  93 SW3       29.93R
CHARLESTON     CLOUDY    72  70  93 W6        29.93R FOG
PINEVILLE*     CLOUDY    70  67  89 MISG      30.02S
BECKLEY        LGT RAIN  69  67  93 W7        30.00R
BLUEFIELD      LGT RAIN  67  66  97 W9        30.03R
LOGAN CO APT*  CLOUDY    70  70 100 CALM      29.96R FOG
$$

VAZ002-007-008-TNZ017-027-036-066-071-290300
...SOUTHWEST VIRGINIA/EAST TENNESSEE...

CITY           SKY/WX    TMP DP  RH WIND       PRES   REMARKS
WISE*          MOCLDY    68  68 100 CALM      30.03R
JONESVILLE*    CLOUDY    70  70 100 CALM      30.00R
ABINGDON*      CLOUDY    71  69  95 CALM      30.00S
BRISTOL        RAIN      72  69  90 N6        29.96S FOG
MORRISTOWN*    CLOUDY    73  72  94 VRB6      29.97R
SEVIERVILLE*   CLOUDY    75  70  83 SW3       29.96R
KNOXVILLE      CLOUDY    74  70  87 SW7       29.96R
OAK RIDGE      LGT RAIN  74  71  91 CALM      29.99R
CROSSVILLE     CLOUDY    71  70  96 W3        30.03R
NASHVILLE      MOCLDY    79  73  82 S6        29.95R
$$

...KEY TO REMARKS...
VSB - VISIBILITY IN MILES
WCI - WIND CHILL INDEX
HX  - HEAT INDEX

$$




USA.gov is the U.S. government's official web portal to all federal, state and local government web resources and services.